Time,TemperatureF,DewpointF,PressureIn,WindDirection,WindDirectionDegrees,WindSpeedMPH,WindSpeedGustMPH,Humidity,HourlyPrecipIn,Conditions,Clouds,dailyrainin,SoftwareType,DateUTC
2013-02-19 00:02:00,58.0,52.0,30.09,ENE,71,2.0,-999.0,81,-99.99,,,-99.99,,2013-02-19 06:02:00,
2013-02-19 00:11:00,58.0,52.0,30.09,ENE,71,2.0,-999.0,81,-99.99,,,-99.99,,2013-02-19 06:11:00,
2013-02-19 00:21:00,58.0,53.0,30.09,ENE,78,2.0,-999.0,82,-99.99,,,-99.99,,2013-02-19 06:21:00,
2013-02-19 00:32:00,59.0,53.0,30.08,ENE,78,2.0,-999.0,81,-99.99,,,-99.99,,2013-02-19 06:32:00,
2013-02-19 00:42:00,59.0,53.0,30.08,ENE,78,2.0,-999.0,81,-99.99,,,-99.99,,2013-02-19 06:42:00,
2013-02-19 00:52:00,59.0,53.0,30.09,NE,36,2.0,-999.0,81,-99.99,,,-99.99,,2013-02-19 06:52:00,
2013-02-19 01:01:00,60.0,54.0,30.09,ESE,107,2.0,-999.0,81,-99.99,,,-99.99,,2013-02-19 07:01:00,
2013-02-19 01:11:00,60.0,54.0,30.09,ESE,107,2.0,-999.0,81,-99.99,,,-99.99,,2013-02-19 07:11:00,
2013-02-19 01:22:00,60.0,54.0,30.05,ENE,66,2.0,-999.0,81,-99.99,,,-99.99,,2013-02-19 07:22:00,
2013-02-19 01:32:00,60.0,54.0,30.05,NNE,19,2.0,-999.0,81,-99.99,,,-99.99,,2013-02-19 07:32:00,
2013-02-19 01:42:00,60.0,54.0,30.05,NNE,19,2.0,-999.0,81,-99.99,,,-99.99,,2013-02-19 07:42:00,
2013-02-19 01:52:00,60.0,54.0,30.05,NNE,19,2.0,-999.0,81,-99.99,,,-99.99,,2013-02-19 07:52:00,
2013-02-19 02:02:00,60.0,54.0,30.05,ESE,123,2.0,-999.0,82,-99.99,,,-99.99,,2013-02-19 08:02:00,
2013-02-19 02:11:00,60.0,54.0,30.05,ESE,123,2.0,-999.0,82,-99.99,,,-99.99,,2013-02-19 08:11:00,
2013-02-19 02:21:00,61.0,55.0,30.05,SE,133,2.0,-999.0,81,-99.99,,,-99.99,,2013-02-19 08:21:00,
2013-02-19 02:31:00,61.0,55.0,30.04,NE,47,2.0,-999.0,80,-99.99,,,-99.99,,2013-02-19 08:31:00,
2013-02-19 02:42:00,61.0,55.0,30.04,NE,47,2.0,-999.0,80,-99.99,,,-99.99,,2013-02-19 08:42:00,
2013-02-19 02:52:00,62.0,56.0,30.04,SW,231,1.0,-999.0,80,-99.99,,,-99.99,,2013-02-19 08:52:00,
2013-02-19 03:01:00,62.0,56.0,30.04,ENE,70,2.0,-999.0,80,-99.99,,,-99.99,,2013-02-19 09:01:00,
2013-02-19 03:11:00,62.0,56.0,30.04,ENE,70,2.0,-999.0,80,-99.99,,,-99.99,,2013-02-19 09:11:00,
2013-02-19 03:21:00,62.0,56.0,30.04,ENE,76,2.0,-999.0,81,-99.99,,,-99.99,,2013-02-19 09:21:00,
2013-02-19 03:32:00,62.0,56.0,30.03,ESE,113,2.0,-999.0,82,-99.99,,,-99.99,,2013-02-19 09:32:00,
2013-02-19 03:42:00,62.0,56.0,30.03,ESE,113,2.0,-999.0,82,-99.99,,,-99.99,,2013-02-19 09:42:00,
2013-02-19 03:52:00,62.0,56.0,30.03,South,179,2.0,-999.0,82,-99.99,,,-99.99,,2013-02-19 09:52:00,
2013-02-19 04:02:00,62.0,56.0,30.03,South,179,2.0,-999.0,82,-99.99,,,-99.99,,2013-02-19 10:02:00,
2013-02-19 04:11:00,62.0,56.0,30.03,South,179,2.0,-999.0,82,-99.99,,,-99.99,,2013-02-19 10:11:00,
2013-02-19 04:21:00,62.0,57.0,30.03,East,87,2.0,-999.0,83,-99.99,,,-99.99,,2013-02-19 10:21:00,
2013-02-19 04:32:00,62.0,57.0,30.01,East,96,1.0,-999.0,84,-99.99,,,-99.99,,2013-02-19 10:32:00,
2013-02-19 04:42:00,62.0,57.0,30.01,East,96,1.0,-999.0,84,-99.99,,,-99.99,,2013-02-19 10:42:00,
2013-02-19 04:52:00,-999.0,-99.9,30.02,WSW,242,2.0,-999.0,-999,-99.99,,,-99.99,,2013-02-19 10:52:00,
2013-02-19 05:02:00,-999.0,-99.9,30.02,SE,140,3.0,-999.0,-999,-99.99,,,-99.99,,2013-02-19 11:02:00,
2013-02-19 05:12:00,-999.0,-99.9,30.02,SE,140,3.0,-999.0,-999,-99.99,,,-99.99,,2013-02-19 11:12:00,
2013-02-19 05:22:00,-999.0,-99.9,30.02,SE,140,3.0,-999.0,-999,-99.99,,,-99.99,,2013-02-19 11:22:00,
2013-02-19 05:32:00,-999.0,-99.9,30.02,SSW,193,2.0,-999.0,-999,-99.99,,,-99.99,,2013-02-19 11:32:00,
2013-02-19 05:42:00,-999.0,-99.9,30.02,SSW,193,2.0,-999.0,-999,-99.99,,,-99.99,,2013-02-19 11:42:00,
2013-02-19 05:52:00,-999.0,-99.9,30.02,SSW,192,2.0,-999.0,-999,-99.99,,,-99.99,,2013-02-19 11:52:00,
2013-02-19 06:02:00,-999.0,-99.9,30.01,SE,129,2.0,-999.0,-999,-99.99,,,-99.99,,2013-02-19 12:02:00,
2013-02-19 06:12:00,-999.0,-99.9,30.01,SE,129,2.0,-999.0,-999,-99.99,,,-99.99,,2013-02-19 12:12:00,
2013-02-19 06:22:00,-999.0,-99.9,30.01,South,178,2.0,-999.0,-999,-99.99,,,-99.99,,2013-02-19 12:22:00,
2013-02-19 06:33:00,-999.0,-99.9,30.01,SSW,205,4.0,-999.0,-999,-99.99,,,-99.99,,2013-02-19 12:33:00,
2013-02-19 06:42:00,-999.0,-99.9,30.01,SSW,205,4.0,-999.0,-999,-99.99,,,-99.99,,2013-02-19 12:42:00,
2013-02-19 06:53:00,-999.0,-99.9,30.02,SSE,166,3.0,-999.0,-999,-99.99,,,-99.99,,2013-02-19 12:53:00,
2013-02-19 07:02:00,-999.0,-99.9,30.03,WSW,238,2.0,-999.0,-999,-99.99,,,-99.99,,2013-02-19 13:02:00,
2013-02-19 07:11:00,-999.0,-99.9,30.03,WSW,238,2.0,-999.0,-999,-99.99,,,-99.99,,2013-02-19 13:11:00,
2013-02-19 07:22:00,-999.0,-99.9,30.03,SSE,156,1.0,-999.0,-999,-99.99,,,-99.99,,2013-02-19 13:22:00,
2013-02-19 07:32:00,-999.0,-99.9,30.03,SSW,201,2.0,-999.0,-999,-99.99,,,-99.99,,2013-02-19 13:32:00,
2013-02-19 07:42:00,-999.0,-99.9,30.03,SSW,201,2.0,-999.0,-999,-99.99,,,-99.99,,2013-02-19 13:42:00,
2013-02-19 07:52:00,-999.0,-99.9,30.02,SSE,168,3.0,-999.0,-999,-99.99,,,-99.99,,2013-02-19 13:52:00,
2013-02-19 08:02:00,-999.0,-99.9,30.03,SSW,210,3.0,-999.0,-999,-99.99,,,-99.99,,2013-02-19 14:02:00,
2013-02-19 08:12:00,-999.0,-99.9,30.03,SSW,210,3.0,-999.0,-999,-99.99,,,-99.99,,2013-02-19 14:12:00,
2013-02-19 08:21:00,61.0,59.0,30.04,WNW,299,2.0,-999.0,93,-99.99,,,-99.99,,2013-02-19 14:21:00,
2013-02-19 08:32:00,61.0,59.0,30.05,South,191,1.0,-999.0,93,-99.99,,,-99.99,,2013-02-19 14:32:00,
2013-02-19 08:42:00,61.0,59.0,30.05,South,191,1.0,-999.0,93,-99.99,,,-99.99,,2013-02-19 14:42:00,
2013-02-19 08:52:00,61.0,59.0,30.06,NW,325,0.0,-999.0,93,-99.99,,,-99.99,,2013-02-19 14:52:00,
2013-02-19 09:01:00,61.0,59.0,30.06,SSW,199,0.0,-999.0,93,-99.99,,,-99.99,,2013-02-19 15:01:00,
2013-02-19 09:11:00,61.0,59.0,30.06,SSW,199,0.0,-999.0,93,-99.99,,,-99.99,,2013-02-19 15:11:00,
2013-02-19 09:21:00,61.0,59.0,30.06,West,263,1.0,-999.0,93,-99.99,,,-99.99,,2013-02-19 15:21:00,
2013-02-19 09:32:00,61.0,59.0,30.06,SSE,164,1.0,-999.0,93,-99.99,,,-99.99,,2013-02-19 15:32:00,
2013-02-19 09:42:00,61.0,59.0,30.06,SSE,164,1.0,-999.0,93,-99.99,,,-99.99,,2013-02-19 15:42:00,
2013-02-19 09:52:00,61.0,59.0,30.06,South,190,0.0,-999.0,93,-99.99,,,-99.99,,2013-02-19 15:52:00,
2013-02-19 10:02:00,62.0,60.0,30.06,SW,223,0.0,-999.0,92,-99.99,,,-99.99,,2013-02-19 16:02:00,
2013-02-19 10:11:00,62.0,60.0,30.06,SW,223,0.0,-999.0,92,-99.99,,,-99.99,,2013-02-19 16:11:00,
2013-02-19 10:21:00,62.0,60.0,30.06,South,190,0.0,-999.0,93,-99.99,,,-99.99,,2013-02-19 16:21:00,
2013-02-19 10:32:00,63.0,61.0,30.07,WNW,288,0.0,-999.0,93,-99.99,,,-99.99,,2013-02-19 16:32:00,
2013-02-19 10:41:00,63.0,61.0,30.07,WNW,288,0.0,-999.0,93,-99.99,,,-99.99,,2013-02-19 16:41:00,
2013-02-19 10:51:00,64.0,62.0,30.08,SE,140,1.0,-999.0,93,-99.99,,,-99.99,,2013-02-19 16:51:00,
2013-02-19 11:01:00,64.0,62.0,30.08,SE,128,0.0,-999.0,92,-99.99,,,-99.99,,2013-02-19 17:01:00,
2013-02-19 11:11:00,64.0,62.0,30.08,SE,128,0.0,-999.0,92,-99.99,,,-99.99,,2013-02-19 17:11:00,
2013-02-19 11:21:00,65.0,62.0,30.08,East,88,0.0,-999.0,90,-99.99,,,-99.99,,2013-02-19 17:21:00,
2013-02-19 11:32:00,66.0,62.0,30.07,SSW,209,1.0,-999.0,88,-99.99,,,-99.99,,2013-02-19 17:32:00,
2013-02-19 11:41:00,66.0,62.0,30.07,SSW,209,1.0,-999.0,88,-99.99,,,-99.99,,2013-02-19 17:41:00,
2013-02-19 11:52:00,66.0,61.0,30.08,South,173,1.0,-999.0,84,-99.99,,,-99.99,,2013-02-19 17:52:00,
2013-02-19 12:01:00,67.0,61.0,30.08,NNW,329,2.0,-999.0,82,-99.99,,,-99.99,,2013-02-19 18:01:00,
2013-02-19 12:11:00,67.0,61.0,30.08,NNW,329,2.0,-999.0,82,-99.99,,,-99.99,,2013-02-19 18:11:00,
2013-02-19 12:21:00,67.0,60.0,30.08,West,263,2.0,-999.0,79,-99.99,,,-99.99,,2013-02-19 18:21:00,
2013-02-19 12:31:00,68.0,60.0,30.07,NNE,19,2.0,-999.0,75,-99.99,,,-99.99,,2013-02-19 18:31:00,
2013-02-19 12:42:00,70.0,60.0,30.06,South,190,1.0,-999.0,71,-99.99,,,-99.99,,2013-02-19 18:42:00,
2013-02-19 12:51:00,70.0,60.0,30.06,South,190,1.0,-999.0,71,-99.99,,,-99.99,,2013-02-19 18:51:00,
2013-02-19 13:01:00,72.0,60.0,30.06,East,87,1.0,-999.0,67,-99.99,,,-99.99,,2013-02-19 19:01:00,
2013-02-19 13:11:00,72.0,60.0,30.06,East,87,1.0,-999.0,67,-99.99,,,-99.99,,2013-02-19 19:11:00,
2013-02-19 13:21:00,70.0,58.0,30.06,ESE,115,2.0,-999.0,65,-99.99,,,-99.99,,2013-02-19 19:21:00,
2013-02-19 13:31:00,70.0,60.0,30.06,NNW,334,2.0,-999.0,71,-99.99,,,-99.99,,2013-02-19 19:31:00,
2013-02-19 13:41:00,70.0,60.0,30.06,NNW,334,2.0,-999.0,71,-99.99,,,-99.99,,2013-02-19 19:41:00,
2013-02-19 13:52:00,71.0,59.0,30.06,SE,134,2.0,-999.0,67,-99.99,,,-99.99,,2013-02-19 19:52:00,
2013-02-19 14:01:00,70.0,58.0,30.06,SSE,149,3.0,-999.0,65,-99.99,,,-99.99,,2013-02-19 20:01:00,
2013-02-19 14:12:00,70.0,58.0,30.06,SSE,149,3.0,-999.0,65,-99.99,,,-99.99,,2013-02-19 20:12:00,
2013-02-19 14:21:00,68.0,56.0,30.07,NNW,336,2.0,-999.0,65,-99.99,,,-99.99,,2013-02-19 20:21:00,
2013-02-19 14:32:00,68.0,57.0,30.07,South,175,2.0,-999.0,67,-99.99,,,-99.99,,2013-02-19 20:32:00,
2013-02-19 14:42:00,68.0,57.0,30.07,South,175,2.0,-999.0,67,-99.99,,,-99.99,,2013-02-19 20:42:00,
2013-02-19 14:52:00,67.0,54.0,30.08,East,94,3.0,-999.0,64,-99.99,,,-99.99,,2013-02-19 20:52:00,
2013-02-19 15:02:00,68.0,55.0,30.07,ENE,63,2.0,-999.0,64,-99.99,,,-99.99,,2013-02-19 21:02:00,
2013-02-19 15:11:00,68.0,55.0,30.07,ENE,63,2.0,-999.0,64,-99.99,,,-99.99,,2013-02-19 21:11:00,
2013-02-19 15:21:00,68.0,54.0,30.07,NE,39,2.0,-999.0,60,-99.99,,,-99.99,,2013-02-19 21:21:00,
2013-02-19 15:32:00,67.0,51.0,30.07,SSW,206,2.0,-999.0,57,-99.99,,,-99.99,,2013-02-19 21:32:00,
2013-02-19 15:42:00,67.0,51.0,30.07,SSW,206,2.0,-999.0,57,-99.99,,,-99.99,,2013-02-19 21:42:00,
2013-02-19 15:52:00,67.0,51.0,30.07,South,190,1.0,-999.0,57,-99.99,,,-99.99,,2013-02-19 21:52:00,
2013-02-19 16:02:00,66.0,51.0,30.06,SW,226,1.0,-999.0,58,-99.99,,,-99.99,,2013-02-19 22:02:00,
2013-02-19 16:11:00,66.0,51.0,30.06,SW,226,1.0,-999.0,58,-99.99,,,-99.99,,2013-02-19 22:11:00,
2013-02-19 16:21:00,65.0,49.0,30.07,SE,138,2.0,-999.0,57,-99.99,,,-99.99,,2013-02-19 22:21:00,
2013-02-19 16:32:00,65.0,49.0,30.07,SSW,211,1.0,-999.0,56,-99.99,,,-99.99,,2013-02-19 22:32:00,
2013-02-19 16:41:00,65.0,49.0,30.07,SSW,211,1.0,-999.0,56,-99.99,,,-99.99,,2013-02-19 22:41:00,
2013-02-19 16:52:00,64.0,45.0,30.08,SSE,167,2.0,-999.0,51,-99.99,,,-99.99,,2013-02-19 22:52:00,
2013-02-19 17:01:00,64.0,45.0,30.08,WSW,238,1.0,-999.0,51,-99.99,,,-99.99,,2013-02-19 23:01:00,
2013-02-19 17:11:00,64.0,45.0,30.08,WSW,238,1.0,-999.0,51,-99.99,,,-99.99,,2013-02-19 23:11:00,
2013-02-19 17:21:00,62.0,44.0,30.09,North,5,1.0,-999.0,51,-99.99,,,-99.99,,2013-02-19 23:21:00,
2013-02-19 17:32:00,62.0,39.0,30.09,WSW,256,1.0,-999.0,43,-99.99,,,-99.99,,2013-02-19 23:32:00,
2013-02-19 17:41:00,62.0,39.0,30.09,WSW,256,1.0,-999.0,43,-99.99,,,-99.99,,2013-02-19 23:41:00,
2013-02-19 17:52:00,61.0,41.0,30.10,SSW,199,0.0,-999.0,47,-99.99,,,-99.99,,2013-02-19 23:52:00,
2013-02-19 18:01:00,59.0,39.0,30.10,SW,214,0.0,-999.0,48,-99.99,,,-99.99,,2013-02-20 00:01:00,
2013-02-19 18:11:00,59.0,39.0,30.10,SW,214,0.0,-999.0,48,-99.99,,,-99.99,,2013-02-20 00:11:00,
2013-02-19 18:21:00,57.0,40.0,30.11,South,184,0.0,-999.0,52,-99.99,,,-99.99,,2013-02-20 00:21:00,
2013-02-19 18:31:00,55.0,40.0,30.11,South,186,0.0,-999.0,57,-99.99,,,-99.99,,2013-02-20 00:31:00,
2013-02-19 18:42:00,55.0,40.0,30.11,South,186,0.0,-999.0,57,-99.99,,,-99.99,,2013-02-20 00:42:00,
2013-02-19 18:52:00,53.0,40.0,30.11,South,186,0.0,-999.0,62,-99.99,,,-99.99,,2013-02-20 00:52:00,
2013-02-19 19:02:00,52.0,39.0,30.12,SE,141,0.0,-999.0,62,-99.99,,,-99.99,,2013-02-20 01:02:00,
2013-02-19 19:32:00,51.0,38.0,30.13,SSE,149,0.0,-999.0,61,-99.99,,,-99.99,,2013-02-20 01:32:00,
2013-02-19 19:42:00,51.0,38.0,30.13,SSE,149,0.0,-999.0,61,-99.99,,,-99.99,,2013-02-20 01:42:00,
2013-02-19 19:52:00,50.0,38.0,30.14,SSE,149,0.0,-999.0,63,-99.99,,,-99.99,,2013-02-20 01:52:00,
2013-02-19 20:02:00,49.0,37.0,30.14,SSW,209,0.0,-999.0,63,-99.99,,,-99.99,,2013-02-20 02:02:00,
2013-02-19 20:11:00,49.0,37.0,30.14,SSW,209,0.0,-999.0,63,-99.99,,,-99.99,,2013-02-20 02:11:00,
2013-02-19 20:21:00,49.0,37.0,30.14,SSW,209,0.0,-999.0,62,-99.99,,,-99.99,,2013-02-20 02:21:00,
2013-02-19 20:31:00,48.0,36.0,30.15,SSW,209,0.0,-999.0,64,-99.99,,,-99.99,,2013-02-20 02:31:00,
2013-02-19 20:42:00,48.0,36.0,30.15,SSW,209,0.0,-999.0,64,-99.99,,,-99.99,,2013-02-20 02:42:00,
2013-02-19 20:52:00,49.0,37.0,30.15,SE,125,0.0,-999.0,62,-99.99,,,-99.99,,2013-02-20 02:52:00,
2013-02-19 21:01:00,49.0,37.0,30.15,SE,125,0.0,-999.0,62,-99.99,,,-99.99,,2013-02-20 03:01:00,
2013-02-19 21:12:00,49.0,37.0,30.15,SE,125,0.0,-999.0,62,-99.99,,,-99.99,,2013-02-20 03:12:00,
2013-02-19 21:22:00,49.0,34.0,30.17,SW,223,0.0,-999.0,56,-99.99,,,-99.99,,2013-02-20 03:22:00,
2013-02-19 21:32:00,48.0,33.0,30.17,WSW,239,0.0,-999.0,55,-99.99,,,-99.99,,2013-02-20 03:32:00,
2013-02-19 21:42:00,48.0,33.0,30.17,WSW,239,0.0,-999.0,55,-99.99,,,-99.99,,2013-02-20 03:42:00,
2013-02-19 21:52:00,48.0,32.0,30.17,South,190,1.0,-999.0,53,-99.99,,,-99.99,,2013-02-20 03:52:00,
2013-02-19 22:01:00,48.0,32.0,30.17,West,261,0.0,-999.0,53,-99.99,,,-99.99,,2013-02-20 04:01:00,
2013-02-19 22:11:00,48.0,32.0,30.17,West,261,0.0,-999.0,53,-99.99,,,-99.99,,2013-02-20 04:11:00,
2013-02-19 22:21:00,47.0,31.0,30.17,SW,223,0.0,-999.0,54,-99.99,,,-99.99,,2013-02-20 04:21:00,
2013-02-19 22:31:00,46.0,32.0,30.18,NW,310,0.0,-999.0,58,-99.99,,,-99.99,,2013-02-20 04:31:00,
2013-02-19 22:41:00,46.0,32.0,30.18,NW,310,0.0,-999.0,58,-99.99,,,-99.99,,2013-02-20 04:41:00,
2013-02-19 22:52:00,45.0,32.0,30.17,NW,309,0.0,-999.0,59,-99.99,,,-99.99,,2013-02-20 04:52:00,
2013-02-19 23:02:00,44.0,32.0,30.18,NW,309,0.0,-999.0,62,-99.99,,,-99.99,,2013-02-20 05:02:00,
2013-02-19 23:12:00,44.0,32.0,30.18,NW,309,0.0,-999.0,62,-99.99,,,-99.99,,2013-02-20 05:12:00,
2013-02-19 23:22:00,43.0,32.0,30.18,NW,310,0.0,-999.0,66,-99.99,,,-99.99,,2013-02-20 05:22:00,
2013-02-19 23:32:00,42.0,31.0,30.19,NW,309,0.0,-999.0,65,-99.99,,,-99.99,,2013-02-20 05:32:00,
2013-02-19 23:43:00,42.0,31.0,30.19,NW,309,0.0,-999.0,65,-99.99,,,-99.99,,2013-02-20 05:43:00,
2013-02-19 23:52:00,41.0,31.0,30.18,NW,309,0.0,-999.0,68,-99.99,,,-99.99,,2013-02-20 05:52:00,